User: anonymous   Login
Location: Isles
(48.9125°N, 2.8272°E)
Time: 02:40:19
(UTC+00:00)
Language:

CZ-4C R/B - Orbit

View from above orbital plane
View from above orbital plane
View from above satellite
View from above satellite

Ground track
Ground track

The orbit data is extracted from the following two-line orbital elements,

1 39211U 13037D   24103.57827905  .00007497  00000-0  34557-3 0  9997
2 39211  98.0454 320.1357 0101940 166.8280 193.5650 15.15993967589472
Epoch (UTC): 12 April 2024 13:52:43
Eccentricity: 0.0101940
inclination: 98.0454°
perigee height: 447 km
apogee height: 588 km
right ascension of ascending node: 320.1357°
argument of perigee: 166.8280°
revolutions per day: 15.15993967
mean anomaly at epoch: 193.5650°
orbit number at epoch: 58947

The dashed part of the orbit path shows where the satellite is in the earth's shadow,  

DLR